Flag for U.S.A. Weather past 2 weeks in Santa Fe, New Mexico, U.S.A.

Now
64 °F

Sunny.


Feels Like: 64 °F
Forecast: 49 / 74 °F
Wind: 3 mph from North

Location: Santa Fe County Municipal Airport

Current Time: May 28, 2015 at 10:08:18 AM

Latest Report: May 28, 2015 at 8:53 AM


Visibility: 10 mi

Pressure: 29.91 "Hg

Humidity: 33%

Dew point: 34 °F

Location of Santa FeLocation

Historic Weather in Santa Fe — Graph

°F

Santa Fe temperature yesterday

Maximum temperature yesterday: 76 °F (at 1:53 PM)
Minimum temperature yesterday: 48 °F (at 3:53 AM)
Average temperature yesterday: 62 °F

Past Weeks' High & Low Weather Summary

 TemperatureHumidityPressure
High76 °F (May 27, 1:53 PM)97% (May 16, 10:53 AM)30.16 "Hg (May 16, 10:53 AM)
Low34 °F (May 16, 10:53 AM)15% (May 23, 4:53 PM)29.70 "Hg (May 14, 8:53 PM)
Average54 °F57%29.88 "Hg
* Reported May 13 8:53 AM — May 28 8:53 AM, Santa Fe, Weather by CustomWeather, © 2015

Note: Actual official high and low records may vary slightly from our data, if they occured in-between our weather recording intervals... More about our weather records

Advertising

Santa Fe weather history for previous 24 hours

 ConditionsComfort  
Time TempWeatherWind HumidityBarometerVisibility
8:53 AM
Thu, May 28
64 °FSunny.3 mph33%29.91 "Hg10 mi
7:53 AM56 °FSunny.3 mph47%29.93 "Hg10 mi
6:53 AM48 °FSunny.No wind61%29.93 "Hg10 mi
5:53 AM51 °FClear.7 mph50%29.90 "Hg10 mi
4:53 AM51 °FClear.8 mph52%29.88 "Hg10 mi
3:53 AM50 °FClear.5 mph54%29.87 "Hg10 mi
2:53 AM52 °FClear.3 mph47%29.85 "Hg10 mi
1:53 AM52 °FClear.6 mph49%29.84 "Hg10 mi
12:53 AM53 °FClear.6 mph48%29.85 "Hg10 mi
11:53 PM
Wed, May 27
53 °FClear.No wind48%29.87 "Hg10 mi
10:53 PM56 °FClear.6 mph46%29.87 "Hg10 mi
9:53 PM64 °FClear.5 mph32%29.86 "Hg10 mi
8:53 PM63 °FSunny.6 mph33%29.87 "Hg10 mi
7:53 PM66 °FSunny.No wind27%29.87 "Hg10 mi
6:53 PM70 °FSunny.7 mph21%29.87 "Hg10 mi
5:53 PM72 °FSunny.12 mph18%29.88 "Hg10 mi
4:53 PM73 °FSunny.14 mph17%29.88 "Hg10 mi
3:53 PM75 °FSunny.9 mph16%29.89 "Hg10 mi
2:53 PM76 °FSunny.12 mph20%29.90 "Hg10 mi
1:53 PM76 °FPassing clouds.12 mph23%29.90 "Hg10 mi
12:53 PM74 °FBroken clouds.No wind25%29.90 "Hg10 mi
11:53 AM73 °FSunny.12 mph25%29.93 "Hg10 mi
10:53 AM70 °FSunny.10 mph31%29.95 "Hg10 mi
Weather by CustomWeather, © 2015

See weather overviewHow to use our weather pages